ORBCOMM FM 12

Satellite information

Favourite Embed

Satellite Type and Status

PAYLOADIN ORBIT

Key statistics

Satellite ORBCOMM FM 12 at a glance.

Uptime

10159

Days in orbit

Revolutions

≈ 14.5

Per day

Orbit

LEO

Low Earth Orbit

Inclination

45.0

Latest

Satellite identification and parameters

Extended collection of information and parameters for ORBCOMM FM 12.

Object identification

Identified? True

Debris? False

Object name: ORBCOMM FM 12

International designator: 1997-084D

Object number (NORAD): 25115

Object ID (CCSDS): 25115

Country: ORBITAL TELECOMMUNICATIONS SATELLITE (GLOBALSTAR) (ORB)

Current information (Y/N): Y

RCS size: MEDIUM

Orbital parameters

Period: 99.599 minutes

Inclination: 45.0126 deg

SMA: 7117.56 km

Apoapsis: 742.921 km

Periapsis: 735.929 km

RAAN: 154.2307 deg

Eccentricy: 0.00049113

Argument of periapsis: 92.5773 deg

Mean anomaly: 267.5641 deg

Mean motion: 14.45792791 rev/day

Mean motion (dot): 0.00001881 rev/day2

B* drag term: 0.00056566421 1/REarth

Two-line elements (TLE)

Creation date: Oct. 15, 2025, 6:23 p.m.

Reference frame: TEME

Reference center: EARTH

Epoch: Oct. 15, 2025, 7:30 a.m. UTC

TLE line 0: 0 ORBCOMM FM 12

TLE line 1: 1 25115U 97084D 25288.31264249 .00001881 00000-0 56566-3 0 9997

TLE line 2: 2 25115 45.0126 154.2307 0004911 92.5773 267.5641 14.45792791458652

Live tracking on map

Real-time ground track for satellite ORBCOMM FM 12.

In-orbit conjunctions

There are no conjunctions computed for ORBCOMM FM 12, at the moment. Check back to stay up to date, as we update our databases every day.

Go to all conjunctions

Associated space launch

ORBCOMM FM 12 was lifted into orbit during the mission ‘Pegasus XL HAPS | Orbcomm-A1 - A8’, on board a Pegasus XL HAPS space rocket.

The launch took place on Dec. 23, 1997, 7:11 p.m. from Wallops Flight Facility.

For more information about the launch, click the button.

Launch to space Pegasus XL HAPS | Orbcomm-A1 - A8
Pegasus XL HAPS | Orbcomm-A1 - A8

Agency: N/A

Status: Launch Successful

Launch date: Dec. 23, 1997, 7:11 p.m. UTC

Rocket: Pegasus XL HAPS

Launch pad: Wallops Flight Facility

Location: Air launch to orbit

...

Latest news about this satellite

There are no fresh news available about this satellite. Check back as we update our databases every day.


Newsletter sign-up

Weekly statistics, charts and insights to help you stay on top of the space industry.